BREEZE-M DEB (TANK), 40386

Orbit data source: Space-Track

BREEZE-M DEB (TANK), 40386 is space debris in HEO originally from a launch on Sun, 01 Feb 2015 UTC launched from the Tyuratam Missile And Space Complex (TTMTR). Debris objects in space refer to the collection of defunct objects orbiting the Earth. Examples of debris include non-operational satellites, rocket bodies, and fragments generated from explosions, collisions, or faulty payload assembly.

Loading next visibility...
Identifier
40386, 2015-005C
Orbit
HEO
Country
Flag of CISCIS
Related business
Manufacturer
Khrunichev
Mission
Spacecraft
Bus & Motor
BRIZ TANK, Unknown motor
Mass
~1,000 kg wet, 1,000 kg dry
Launch date (UTC)
2015-02-01 (12 years ago)
Launch vehicle
Unknown
Launch site
Tyuratam Missile And Space Complex (TTMTR)
Object type
Payload
Rocket body
Debris
Shape & HBR
Torus, 2.0 m
Radar Cross Section
8.218 m², Large (>1 m²)

Expand to show TLE details & history
Last TLE update: 13 hours ago

TLE from 13 hours ago
0 BREEZE-M DEB (TANK)
1 40386U 15005C   26254.83246263  .00001894  00000-0  69100-3 0  9996
2 40386  50.7595 337.4417 5131853 210.8845 105.0337  5.34777433220384
Epoch: 2026-09-11T19:58Z
TLE epoch observation values (Epoch: 2026-09-11T19:58:44.771Z)
Latitude
0.00006°
Longitude
46.91386°
Altitude
11,819.349 km
Speed
3.867 km/s
True Right ascension
22h 29m 48s
True Declination
0° 00' 00"
Sunlit
Object was in full shadow at epoch
Visualization orbit readout
Latitude
Unknown
Longitude
Unknown
Altitude
Unknown
Speed
Unknown
Apparent Right ascension
Unknown
Apparent Declination
Unknown
Sunlit
N/A
Visualization observer readout
Local Sidereal Time
01:46:53
Azimuth
Unknown
Elevation
Unknown
Doppler factor
Unknown
Orbital elements
Apogee altitude
14,524.195 km
Perigee altitude
346.461 km
Semi-major axis
13,813.465 km
Eccentricity
0.51319
Inclination
50.7595°
RAAN
337.4417°
Arg. of periapsis
210.8845°
True anomaly
149.17363°
Mean anomaly
105.0337°
Eccentric anomaly
128.15485°
Mean motion
1.33687 °/min
Orbital period
269.29 mins
BSTAR
0.000691
Loading maneuver chart data...
Computing Atmospheric mass density...
Loading historical data...
Loading historical data...
Loading historical data...
Loading historical data...
Loading historical data...
Loading historical data...
Loading historical data...
Other satellites on launch #5 in the year 2015 (2015-02-01 UTC)

Documentation

Showing up to 5 results
|